TimeEST,TemperatureF,Dew PointF,Humidity,Sea Level PressureIn,VisibilityMPH,Wind Direction,Wind SpeedMPH,Gust SpeedMPH,PrecipitationIn,Events,Conditions,WindDirDegrees,DateUTC
12:54 AM,28.9,25.0,85,30.39,10.0,SSW,3.5,-,N/A,,Clear,210,2012-12-31 05:54:00
1:54 AM,28.9,25.0,85,30.37,10.0,Calm,Calm,-,N/A,,Clear,0,2012-12-31 06:54:00
2:54 AM,28.0,24.1,85,30.40,10.0,Calm,Calm,-,N/A,,Clear,0,2012-12-31 07:54:00
3:54 AM,25.0,23.0,92,30.39,8.0,SSW,3.5,-,N/A,,Clear,210,2012-12-31 08:54:00
4:54 AM,25.0,23.0,92,30.38,9.0,SSW,3.5,-,N/A,,Clear,200,2012-12-31 09:54:00
5:54 AM,28.0,25.0,88,30.40,9.0,WSW,4.6,-,N/A,,Clear,240,2012-12-31 10:54:00
6:54 AM,30.0,26.1,85,30.39,10.0,SSW,3.5,-,N/A,,Clear,210,2012-12-31 11:54:00
7:54 AM,30.9,27.0,85,30.40,9.0,SW,4.6,-,N/A,,Clear,220,2012-12-31 12:54:00
8:54 AM,34.0,28.0,79,30.40,10.0,SW,5.8,-,N/A,,Clear,220,2012-12-31 13:54:00
9:54 AM,36.0,28.0,73,30.38,10.0,SSW,6.9,-,N/A,,Clear,200,2012-12-31 14:54:00
10:54 AM,45.0,28.9,53,30.38,10.0,SW,9.2,-,N/A,,Clear,220,2012-12-31 15:54:00
11:54 AM,48.9,25.0,39,30.33,10.0,SW,16.1,21.9,N/A,,Unknown,230,2012-12-31 16:54:00
12:54 PM,51.1,25.0,36,30.30,10.0,SW,13.8,-,N/A,,Clear,220,2012-12-31 17:54:00
1:54 PM,52.0,25.0,35,30.26,10.0,SSW,16.1,20.7,N/A,,Clear,210,2012-12-31 18:54:00
2:54 PM,51.1,24.1,35,30.24,10.0,SW,9.2,-,N/A,,Clear,230,2012-12-31 19:54:00
3:54 PM,50.0,26.1,39,30.23,10.0,SW,6.9,-,N/A,,Clear,220,2012-12-31 20:54:00
4:54 PM,50.0,27.0,41,30.22,10.0,SSW,9.2,-,N/A,,Overcast,210,2012-12-31 21:54:00
5:54 PM,48.9,27.0,43,30.23,10.0,SW,8.1,-,N/A,,Overcast,220,2012-12-31 22:54:00
6:54 PM,48.9,28.0,44,30.23,10.0,SW,6.9,-,N/A,,Overcast,220,2012-12-31 23:54:00
7:54 PM,48.0,28.9,48,30.21,10.0,SSW,6.9,-,N/A,,Overcast,210,2013-01-01 00:54:00
8:54 PM,45.0,28.0,52,30.19,10.0,SW,6.9,-,N/A,,Mostly Cloudy,220,2013-01-01 01:54:00
9:54 PM,46.9,28.9,50,30.17,10.0,SW,8.1,-,N/A,,Mostly Cloudy,220,2013-01-01 02:54:00
11:54 PM,48.0,28.9,48,30.14,10.0,SW,8.1,-,N/A,,Mostly Cloudy,220,2013-01-01 04:54:00